TimePST,TemperatureF,Dew PointF,Humidity,Sea Level PressureIn,VisibilityMPH,Wind Direction,Wind SpeedMPH,Gust SpeedMPH,PrecipitationIn,Events,Conditions,WindDirDegrees,DateUTC
12:43 AM,50.0,48.2,94,29.75,10.0,SW,13.8,-,N/A,Rain,Light Rain,230,2013-01-09 08:43:00
12:58 AM,49.6,48.6,96,29.78,9.0,SW,15.0,-,0.02,Rain,Light Rain,220,2013-01-09 08:58:00
1:08 AM,50.0,48.2,94,29.76,5.0,SW,18.4,21.9,N/A,Rain,Light Rain,220,2013-01-09 09:08:00
1:13 AM,50.0,48.2,94,29.76,6.0,SSW,18.4,21.9,N/A,Rain,Light Rain,210,2013-01-09 09:13:00
1:14 AM,50.0,48.2,94,29.76,6.0,SSW,19.6,25.3,N/A,,Overcast,210,2013-01-09 09:14:00
1:19 AM,50.0,48.2,94,29.76,7.0,SSW,16.1,25.3,N/A,Rain,Light Rain,200,2013-01-09 09:19:00
1:29 AM,48.2,48.2,100,29.76,8.0,SSW,17.3,24.2,N/A,,Overcast,210,2013-01-09 09:29:00
1:41 AM,48.2,48.2,100,29.76,9.0,SSW,16.1,26.5,N/A,Rain,Light Rain,210,2013-01-09 09:41:00
1:58 AM,48.6,48.0,98,29.75,6.0,SSW,13.8,-,0.10,Rain,Light Rain,200,2013-01-09 09:58:00
2:08 AM,48.2,48.2,100,29.73,10.0,SSW,10.4,-,N/A,,Overcast,200,2013-01-09 10:08:00
2:12 AM,48.2,48.2,100,29.73,10.0,SSW,10.4,-,N/A,Rain,Light Rain,210,2013-01-09 10:12:00
2:47 AM,48.2,46.4,93,29.74,9.0,WNW,18.4,21.9,N/A,Rain,Light Rain,290,2013-01-09 10:47:00
2:58 AM,45.3,44.8,98,29.75,9.0,WNW,12.7,21.9,0.03,Rain,Light Rain,290,2013-01-09 10:58:00
3:21 AM,44.6,44.6,100,29.74,6.0,WSW,6.9,-,N/A,Rain,Light Rain,240,2013-01-09 11:21:00
3:41 AM,42.8,42.8,100,29.73,9.0,West,15.0,-,N/A,Rain,Light Rain,270,2013-01-09 11:41:00
3:51 AM,42.8,42.8,100,29.73,8.0,WSW,12.7,-,N/A,Rain,Light Rain,250,2013-01-09 11:51:00
3:58 AM,42.8,42.1,97,29.75,8.0,West,12.7,-,0.11,Rain,Light Rain,260,2013-01-09 11:58:00
4:08 AM,42.8,41.0,93,29.72,8.0,West,12.7,-,N/A,Rain,Rain,260,2013-01-09 12:08:00
4:58 AM,41.5,41.0,98,29.73,9.0,WSW,10.4,-,0.09,Rain,Light Rain,250,2013-01-09 12:58:00
5:13 AM,41.0,41.0,100,29.70,6.0,SW,8.1,-,N/A,Rain,Light Rain,230,2013-01-09 13:13:00
5:43 AM,41.0,41.0,100,29.70,6.0,SW,10.4,-,N/A,Rain,Rain,230,2013-01-09 13:43:00
5:58 AM,40.6,39.7,97,29.73,7.0,SW,9.2,-,0.13,Rain,Rain,220,2013-01-09 13:58:00
6:03 AM,41.0,39.2,93,29.71,6.0,SW,9.2,-,N/A,Rain,Rain,220,2013-01-09 14:03:00
6:23 AM,39.2,39.2,100,29.71,7.0,SSW,10.4,-,N/A,Rain,Light Rain,210,2013-01-09 14:23:00
6:38 AM,39.2,39.2,100,29.73,8.0,SSW,8.1,-,N/A,,Overcast,200,2013-01-09 14:38:00
6:58 AM,39.6,39.4,99,29.75,8.0,SSW,9.2,-,0.15,Rain,Light Rain,200,2013-01-09 14:58:00
7:08 AM,39.2,39.2,100,29.73,9.0,SSW,10.4,-,N/A,,Overcast,210,2013-01-09 15:08:00
7:33 AM,39.2,39.2,100,29.74,9.0,South,13.8,-,N/A,,Overcast,190,2013-01-09 15:33:00
7:38 AM,39.2,37.4,93,29.75,10.0,South,11.5,-,N/A,,Overcast,190,2013-01-09 15:38:00
7:48 AM,37.4,37.4,100,29.75,9.0,South,10.4,-,N/A,,Overcast,190,2013-01-09 15:48:00
7:58 AM,37.9,37.4,98,29.77,9.0,South,10.4,-,0.12,,Overcast,190,2013-01-09 15:58:00
8:03 AM,37.4,37.4,100,29.75,9.0,South,8.1,-,N/A,,Overcast,180,2013-01-09 16:03:00
8:08 AM,37.4,37.4,100,29.74,9.0,South,9.2,-,N/A,Rain,Light Rain,170,2013-01-09 16:08:00
8:13 AM,37.4,37.4,100,29.75,10.0,SSE,9.2,-,N/A,Rain,Light Rain,160,2013-01-09 16:13:00
8:31 AM,37.4,37.4,100,29.76,10.0,South,11.5,-,N/A,Rain,Light Rain,170,2013-01-09 16:31:00
8:36 AM,37.4,35.6,93,29.76,10.0,South,11.5,-,N/A,Rain,Light Rain,170,2013-01-09 16:36:00
8:58 AM,36.5,36.1,99,29.78,10.0,South,11.5,-,0.04,Rain,Light Rain,170,2013-01-09 16:58:00
9:19 AM,35.6,35.6,100,29.76,10.0,South,13.8,-,N/A,,Mostly Cloudy,170,2013-01-09 17:19:00
9:45 AM,37.4,37.4,100,29.75,10.0,South,13.8,-,N/A,,Mostly Cloudy,180,2013-01-09 17:45:00
9:58 AM,37.2,37.0,99,29.78,10.0,South,15.0,-,0.00,,Mostly Cloudy,190,2013-01-09 17:58:00
10:58 AM,38.8,38.7,99,29.80,10.0,South,11.5,-,N/A,,Overcast,190,2013-01-09 18:58:00
11:18 AM,39.2,39.2,100,29.78,10.0,SSW,16.1,-,N/A,,Overcast,200,2013-01-09 19:18:00
11:33 AM,39.2,39.2,100,29.78,10.0,SSW,11.5,-,N/A,,Mostly Cloudy,200,2013-01-09 19:33:00
11:58 AM,40.1,39.0,96,29.80,10.0,SSW,12.7,-,N/A,,Mostly Cloudy,200,2013-01-09 19:58:00
12:58 PM,40.1,38.5,94,29.81,10.0,South,16.1,-,0.01,,Scattered Clouds,190,2013-01-09 20:58:00
1:28 PM,39.2,39.2,100,29.81,10.0,SSW,12.7,-,N/A,,Mostly Cloudy,200,2013-01-09 21:28:00
1:58 PM,40.3,38.1,92,29.83,10.0,SSW,15.0,-,N/A,,Mostly Cloudy,200,2013-01-09 21:58:00
2:13 PM,41.0,39.2,93,29.82,10.0,SSW,12.7,-,N/A,,Mostly Cloudy,210,2013-01-09 22:13:00
2:23 PM,41.0,39.2,93,29.82,10.0,SSW,16.1,-,N/A,,Mostly Cloudy,210,2013-01-09 22:23:00
2:33 PM,41.0,39.2,93,29.82,10.0,SSW,13.8,-,N/A,,Mostly Cloudy,200,2013-01-09 22:33:00
2:43 PM,41.0,37.4,87,29.83,10.0,SSW,12.7,-,N/A,,Scattered Clouds,200,2013-01-09 22:43:00
2:58 PM,40.3,37.6,90,29.85,10.0,South,15.0,-,N/A,,Partly Cloudy,190,2013-01-09 22:58:00
3:58 PM,39.2,36.9,91,29.88,10.0,SSW,13.8,-,N/A,,Clear,200,2013-01-09 23:58:00
4:58 PM,38.5,36.5,93,29.90,10.0,South,10.4,-,N/A,,Scattered Clouds,190,2013-01-10 00:58:00
5:00 PM,39.2,37.4,93,29.89,10.0,SSW,11.5,-,N/A,,Scattered Clouds,200,2013-01-10 01:00:00
5:05 PM,39.2,37.4,93,29.89,8.0,SSW,10.4,-,N/A,,Mostly Cloudy,200,2013-01-10 01:05:00
5:10 PM,39.2,37.4,93,29.89,8.0,South,10.4,-,N/A,Rain,Light Rain,190,2013-01-10 01:10:00
5:15 PM,39.2,37.4,93,29.89,9.0,South,10.4,-,N/A,Rain,Light Rain,190,2013-01-10 01:15:00
5:33 PM,37.4,37.4,100,29.89,10.0,South,11.5,-,N/A,,Overcast,170,2013-01-10 01:33:00
5:43 PM,37.4,35.6,93,29.89,10.0,South,12.7,-,N/A,,Mostly Cloudy,180,2013-01-10 01:43:00
5:58 PM,36.7,36.0,97,29.91,10.0,South,12.7,-,0.01,,Partly Cloudy,190,2013-01-10 01:58:00
6:58 PM,35.8,34.3,94,29.92,10.0,South,10.4,-,N/A,,Clear,180,2013-01-10 02:58:00
7:58 PM,35.2,33.8,94,29.93,10.0,South,9.2,-,N/A,,Clear,190,2013-01-10 03:58:00
8:58 PM,33.3,32.7,98,29.95,10.0,SSE,3.5,-,N/A,,Clear,150,2013-01-10 04:58:00
9:58 PM,34.2,33.3,97,29.95,10.0,SSW,9.2,-,N/A,,Scattered Clouds,210,2013-01-10 05:58:00
10:58 PM,32.7,32.2,98,29.96,10.0,South,9.2,-,N/A,,Scattered Clouds,190,2013-01-10 06:58:00
11:58 PM,32.0,31.5,98,29.96,10.0,South,2.3,-,N/A,,Clear,170,2013-01-10 07:58:00